Location: Obersdorf
(47.4079°N, 10.2781°E)
Time: 17:33:19
(UTC+02:00)

N. Korean satellite - Visible Passes

Search period start: 20 September 2021 00:00
Search period end: 30 September 2021 00:00
Orbit: 448 x 498 km, 97.3° (Epoch: 19 September)

Date Brightness Start Highest point End Pass type
(mag) Time Alt. Az. Time Alt. Az. Time Alt. Az.
20 Sep 8.1 06:17:51 10° NNE 06:21:11 40° E 06:24:32 10° S visible
21 Sep 9.5 05:50:41 10° NE 05:53:17 19° E 05:55:56 10° SE visible
23 Sep 7.4 06:27:42 10° NNE 06:31:11 54° E 06:34:41 10° S visible
24 Sep 9.1 06:00:19 10° NE 06:03:19 25° E 06:06:19 10° SSE visible
25 Sep 9.9 05:33:43 10° ENE 05:35:20 13° E 05:36:57 10° ESE visible
26 Sep 6.9 06:37:33 10° NNE 06:41:06 73° ESE 06:44:41 10° S visible
27 Sep 8.5 06:10:00 10° NNE 06:13:15 33° E 06:16:33 10° SSE visible
28 Sep 9.7 05:42:57 10° NE 05:45:18 16° E 05:47:39 10° SE visible
